This is the latest recevied weather packets stored in our database for station/object OH2HCY-3. If no packets are shown the sender has not sent any weather packets the latest 10 day(s).
| Time | Temp. | Humidity | Pressure | Rain* | Wind** | Luminosity | Snow |
|---|---|---|---|---|---|---|---|
| 1777786901 | 7.78° C | 75% | 1006.8 hPa | - | - | - | - |
| 1777785893 | 7.78° C | 75% | 1006.6 hPa | - | - | - | - |
| 1777784850 | 7.78° C | 76% | 1006.6 hPa | - | - | - | - |
| 1777783690 | 7.22° C | 77% | 1006.4 hPa | - | - | - | - |
| 1777782705 | 7.22° C | 80% | 1006.3 hPa | - | - | - | - |
| 1777781524 | 6.67° C | 81% | 1006.1 hPa | - | - | - | - |
| 1777780342 | 6.11° C | 82% | 1006.3 hPa | - | - | - | - |
| 1777779151 | 6.11° C | 83% | 1006 hPa | - | - | - | - |
| 1777778012 | 5.56° C | 84% | 1005.9 hPa | - | - | - | - |
| 1777776830 | 5° C | 85% | 1005.9 hPa | - | - | - | - |
| 1777775870 | 5° C | 84% | 1005.6 hPa | - | - | - | - |
| 1777774820 | 5.56° C | 83% | 1006 hPa | - | - | - | - |
| 1777773690 | 5.56° C | 82% | 1005.9 hPa | - | - | - | - |
| 1777772615 | 5.56° C | 81% | 1005.8 hPa | - | - | - | - |
| 1777771650 | 6.11° C | 81% | 1005.5 hPa | - | - | - | - |
| 1777770680 | 6.11° C | 81% | 1005.7 hPa | - | - | - | - |
| 1777769510 | 6.11° C | 80% | 1005.9 hPa | - | - | - | - |
| 1777768340 | 6.11° C | 80% | 1006.2 hPa | - | - | - | - |
| 1777767190 | 6.11° C | 79% | 1006.3 hPa | - | - | - | - |
| 1777766104 | 6.11° C | 78% | 1006.6 hPa | - | - | - | - |
| 1777764933 | 6.67° C | 77% | 1006.7 hPa | - | - | - | - |
| 1777764930 | 6.67° C | 77% | 1006.7 hPa | - | - | - | - |
| 1777763935 | 6.67° C | 77% | 1006.8 hPa | - | - | - | - |
| 1777762935 | 6.67° C | 77% | 1006.9 hPa | - | - | - | - |
| 1777761938 | 6.67° C | 76% | 1007.1 hPa | - | - | - | - |
* Rain since midnight (hover to see other rain measurements)
** Current wind speed in m/s (hover to see current wind gust speed)